TimeCST,TemperatureF,Dew PointF,Humidity,Sea Level PressureIn,VisibilityMPH,Wind Direction,Wind SpeedMPH,Gust SpeedMPH,PrecipitationIn,Events,Conditions,WindDirDegrees,DateUTC
12:55 AM,28.9,20.1,70,30.04,10.0,WNW,11.5,-,N/A,,Clear,290,2013-02-19 06:55:00
1:55 AM,27.7,19.8,72,30.06,10.0,West,11.5,-,N/A,,Clear,280,2013-02-19 07:55:00
2:55 AM,27.1,18.3,69,30.07,10.0,West,8.1,-,N/A,,Clear,270,2013-02-19 08:55:00
3:55 AM,26.4,17.6,69,30.08,10.0,WSW,5.8,-,N/A,,Clear,250,2013-02-19 09:55:00
4:55 AM,25.5,17.2,71,30.10,10.0,WSW,6.9,-,N/A,,Clear,250,2013-02-19 10:55:00
5:55 AM,25.0,17.2,72,30.12,10.0,West,9.2,-,N/A,,Clear,260,2013-02-19 11:55:00
6:55 AM,24.3,17.8,76,30.14,10.0,West,8.1,-,N/A,,Clear,260,2013-02-19 12:55:00
7:55 AM,26.6,18.0,70,30.15,10.0,WNW,10.4,16.1,N/A,,Clear,290,2013-02-19 13:55:00
8:55 AM,29.3,16.9,60,30.18,10.0,WNW,10.4,20.7,N/A,,Clear,290,2013-02-19 14:55:00
9:55 AM,30.6,13.8,50,30.20,10.0,WNW,15.0,21.9,N/A,,Clear,300,2013-02-19 15:55:00
10:55 AM,33.3,13.5,44,30.21,10.0,WNW,16.1,25.3,N/A,,Clear,300,2013-02-19 16:55:00
11:55 AM,35.6,11.1,36,30.22,10.0,WNW,15.0,23.0,N/A,,Clear,300,2013-02-19 17:55:00
12:55 PM,37.8,9.1,31,30.22,10.0,West,10.4,28.8,N/A,,Clear,280,2013-02-19 18:55:00
1:55 PM,37.9,7.9,29,30.23,10.0,West,16.1,24.2,N/A,,Clear,280,2013-02-19 19:55:00
2:55 PM,38.7,5.2,25,30.24,10.0,WNW,17.3,24.2,N/A,,Clear,300,2013-02-19 20:55:00
3:55 PM,38.3,2.1,22,30.24,10.0,WNW,18.4,25.3,N/A,,Clear,300,2013-02-19 21:55:00
4:55 PM,36.9,1.4,22,30.25,10.0,WNW,12.7,19.6,N/A,,Clear,300,2013-02-19 22:55:00
6:55 PM,30.2,5.0,34,30.27,10.0,WNW,3.5,-,N/A,,Clear,290,2013-02-20 00:55:00
7:55 PM,28.9,5.5,37,30.27,10.0,WNW,4.6,-,N/A,,Clear,300,2013-02-20 01:55:00
8:55 PM,27.0,5.7,41,30.30,10.0,WNW,3.5,-,N/A,,Clear,290,2013-02-20 02:55:00
9:55 PM,24.1,7.7,50,30.30,10.0,NNW,4.6,-,N/A,,Clear,330,2013-02-20 03:55:00
10:55 PM,23.9,7.3,49,30.32,10.0,NW,4.6,-,N/A,,Clear,320,2013-02-20 04:55:00
11:55 PM,22.6,8.4,55,30.34,10.0,NW,5.8,-,N/A,,Clear,320,2013-02-20 05:55:00